Flag for Germany Weather past 2 weeks in Leutkirch im Allgäu, Baden-Württemberg, Germany

Now
55 °F

Overcast.


Feels Like: 55 °F
Forecast: 48 / 65 °F
Wind: 2 mph from East

Location: Kempten

Current Time: May 23, 2015 at 4:19:57 PM

Latest Report: May 23, 2015 at 4:00 PM


Visibility: 13 mi

Pressure: 30.03 "Hg

Humidity: 56%

Dew point: 40 °F

Location of Leutkirch im AllgäuLocation

Historic Weather in Leutkirch im Allgäu — Graph

°F

Leutkirch im Allgäu temperature yesterday

Maximum temperature yesterday: 53 °F (at 3:00 PM)
Minimum temperature yesterday: 42 °F (at 6:00 AM)
Average temperature yesterday: 47 °F

Past Weeks' High & Low Weather Summary

 TemperatureHumidityPressure
High79 °F (May 12, 5:00 PM)99% (May 16, 7:00 AM)30.39 "Hg (May 16, 7:00 AM)
Low40 °F (May 21, 6:00 AM)22% (May 11, 6:00 PM)29.70 "Hg (May 18, 7:00 PM)
Average55 °F74%30.08 "Hg
* Reported May 8 3:00 PM — May 23 3:00 PM, Leutkirch im Allgäu, Weather by CustomWeather, © 2015

Note: Actual official high and low records may vary slightly from our data, if they occured in-between our weather recording intervals... More about our weather records

Advertising

Leutkirch im Allgäu weather history for previous 24 hours

 ConditionsComfort  
Time TempWeatherWind HumidityBarometerVisibility
3:00 PM
Sat, May 23
55 °FOvercast.3 mph60%30.05 "Hg11 mi
2:00 PM54 °FOvercast.2 mph63%30.06 "Hg11 mi
1:00 PM53 °FOvercast.3 mph68%30.07 "Hg9 mi
12:00 PM52 °FOvercast.3 mph69%30.09 "Hg11 mi
10:00 AM50 °FDrizzle. Overcast.2 mph77%30.10 "Hg7 mi
9:00 AM48 °FDrizzle. Overcast.2 mph77%30.11 "Hg11 mi
8:00 AM47 °FOvercast.2 mph79%30.11 "Hg11 mi
7:00 AM46 °FOvercast.1 mph83%30.11 "Hg10 mi
4:00 AM44 °FOvercast.1 mph90%30.13 "Hg7 mi
3:00 AM45 °FOvercast.1 mph86%30.14 "Hg10 mi
2:00 AM45 °FOvercast.1 mph89%30.16 "Hg5 mi
1:00 AM45 °FOvercast.1 mph85%30.17 "Hg10 mi
12:00 AM47 °FOvercast.1 mph78%30.18 "Hg12 mi
10:00 PM
Fri, May 22
47 °FPassing clouds.1 mph86%30.20 "Hg6 mi
9:00 PM48 °FOvercast.No wind85%30.19 "Hg9 mi
8:00 PM49 °FOvercast.1 mph76%30.19 "Hg11 mi
7:00 PM50 °FScattered clouds.2 mph69%30.19 "Hg11 mi
6:00 PM51 °FOvercast.2 mph73%30.19 "Hg10 mi
5:00 PM50 °FOvercast.2 mph75%30.19 "Hg8 mi
4:00 PM51 °FOvercast.3 mph73%30.21 "Hg9 mi
Weather by CustomWeather, © 2015

See weather overviewHow to use our weather pages